Hyannis, MA

1:54 AM EST on February 14, 2016 (GMT -0500)
Barnstable Municipal-Boardman-Polando Field

Weather History for KHYA - February, 2013

Change the Weather History Date:

Saturday, February 2, 2013

  Actual Average Record
Temperature  
Mean Temperature 26 °F -  
Max Temperature 32 °F 39 °F 60 °F (1982)
Min Temperature 19 °F 21 °F -5 °F (1961)
Degree Days  
Heating Degree Days 40    
Moisture  
Dew Point 14 °F    
Average Humidity 60    
Maximum Humidity 92    
Minimum Humidity 36    
Precipitation  
Precipitation 0.00 in - - ()
Sea Level Pressure  
Sea Level Pressure 30.13 in    
Wind  
Wind Speed 9 mph (WSW)    
Max Wind Speed 18 mph    
Max Gust Speed 25 mph    
Visibility 8 miles    
Events Snow    
Averages and records for this station are not official NWS values.
T = Trace of Precipitation, MM = Missing Value Source: NWS Daily Summary

Daily Weather History Graph

Daily Weather History Graph

Search for Another Location

Airport or City:

Trip Planner

Search our weather history database for the weather conditions in past years. The results will help you decide how hot, cold, wet, or windy it might be!

Date:

Astronomy

Feb. 02, 2013 Rise Set
Actual Time 6:51 AM EST 4:58 PM EST
Civil Twilight 6:22 AM EST 5:27 PM EST
Nautical Twilight 5:49 AM EST 6:00 PM EST
Astronomical Twilight 5:16 AM EST 6:33 PM EST
Moon No Moon Rise 9:53 AM EST (2/2)
Length of Visible Light 11h 05m
Length of Day
10h 06m
Waning Gibbous, 60% of the Moon is Illuminated
Feb 2
Waning Gibbous
Feb 3
Last Quarter
Feb 10
New
Feb 17
First Quarter
Feb 25
Full

Hourly Weather History & Observations

Time (EST) Temp. Windchill Dew Point Humidity Pressure Visibility Wind Dir Wind Speed Gust Speed Precip Events Conditions
12:56 AM 23.0 °F 13.1 °F 5.0 °F 46% 30.09 in 10.0 mi West 9.2 mph - N/A   Clear
1:56 AM 21.9 °F 11.0 °F 6.1 °F 51% 30.12 in 10.0 mi West 10.4 mph - N/A   Clear
2:56 AM 21.9 °F 12.5 °F 7.0 °F 53% 30.14 in 10.0 mi West 8.1 mph - N/A   Clear
3:56 AM 21.0 °F 13.4 °F 7.0 °F 55% 30.15 in 10.0 mi WNW 5.8 mph - N/A   Clear
4:56 AM 21.0 °F 9.9 °F 7.0 °F 55% 30.17 in 10.0 mi WNW 10.4 mph - N/A   Scattered Clouds
5:56 AM 19.9 °F - 7.0 °F 57% 30.18 in 10.0 mi Calm Calm - N/A   Clear
6:56 AM 19.9 °F 12.1 °F 6.1 °F 55% 30.22 in 10.0 mi WNW 5.8 mph - N/A   Clear
7:56 AM 21.0 °F 12.4 °F 3.9 °F 48% 30.23 in 10.0 mi NW 6.9 mph - N/A   Clear
8:56 AM 23.0 °F 13.9 °F 1.9 °F 40% 30.24 in 10.0 mi West 8.1 mph - N/A   Clear
9:56 AM 25.0 °F 15.5 °F 3.0 °F 39% 30.25 in 10.0 mi West 9.2 mph - N/A   Clear
10:56 AM 27.0 °F 19.5 °F 3.0 °F 36% 30.24 in 10.0 mi West 6.9 mph - N/A   Clear
11:56 AM 28.0 °F 20.8 °F 3.9 °F 36% 30.21 in 10.0 mi SW 6.9 mph - N/A   Clear
12:56 PM 27.0 °F 15.6 °F 10.9 °F 51% 30.18 in 10.0 mi SSW 13.8 mph 24.2 mph N/A   Clear
1:56 PM 28.0 °F 17.0 °F 12.0 °F 51% 30.16 in 10.0 mi WSW 13.8 mph - N/A   Partly Cloudy
2:56 PM 28.0 °F 17.5 °F 16.0 °F 61% 30.14 in 10.0 mi SSW 12.7 mph - N/A   Mostly Cloudy
3:56 PM 28.9 °F 17.7 °F 15.1 °F 56% 30.12 in 10.0 mi SW 15.0 mph - N/A   Mostly Cloudy
4:56 PM 28.9 °F 19.8 °F 16.0 °F 58% 30.11 in 10.0 mi SW 10.4 mph - N/A   Overcast
5:56 PM 30.0 °F 19.1 °F 19.0 °F 64% 30.10 in 10.0 mi SW 15.0 mph - N/A   Overcast
6:56 PM 30.9 °F 19.1 °F 18.0 °F 59% 30.09 in 10.0 mi SW 18.4 mph 25.3 mph N/A   Overcast
7:56 PM 30.9 °F 20.7 °F 19.0 °F 61% 30.07 in 10.0 mi SW 13.8 mph 20.7 mph N/A   Scattered Clouds
8:56 PM 32.0 °F 21.6 °F 21.0 °F 64% 30.06 in 10.0 mi SW 15.0 mph 23.0 mph N/A   Partly Cloudy
9:56 PM 32.0 °F 23.6 °F 21.9 °F 66% 30.06 in 10.0 mi West 10.4 mph 19.6 mph N/A   Overcast
10:31 PM 30.2 °F 22.6 °F 24.8 °F 80% 30.05 in 2.5 mi WSW 8.1 mph - 0.00 in Snow Light Snow
10:51 PM 30.2 °F 23.4 °F 26.6 °F 86% 30.04 in 2.5 mi WSW 6.9 mph - 0.00 in Snow Light Snow
10:56 PM 30.0 °F 25.2 °F 27.0 °F 88% 30.05 in 3.0 mi West 4.6 mph - 0.00 in Snow Light Snow
11:12 PM 30.2 °F 25.4 °F 26.6 °F 86% 30.04 in 2.0 mi West 4.6 mph - 0.00 in Snow Light Snow
11:19 PM 30.2 °F 25.4 °F 26.6 °F 86% 30.04 in 2.0 mi West 4.6 mph - 0.00 in Snow Light Snow
11:56 PM 28.0 °F 22.8 °F 26.1 °F 92% 30.04 in 1.8 mi NNW 4.6 mph - 0.00 in Snow Light Snow